Simultaneous Nadir Overpasses (SNOs) Predictions

Prediction of SNOs between GOES-15 and METOP-B Satellite Orbit:

Table of predicted SNOs for the next 14.0 days since TLE Epoch: 1/20/2017
Index Date Time (GOES-15) GOES-15 Lat,Lon METOP-B Lat,Lon Distance(km) Time Diff (sec)
1 01/21/2017 06:41:57 -0.00,-135.14 -0.46,-137.16 230.30 80
2 01/22/2017 06:18:37 0.00,-135.16 0.69,-132.17 341.90 80
3 01/23/2017 18:40:08 0.00,-135.17 0.37,-136.72 176.38 80
4 01/24/2017 18:16:48 -0.00,-135.20 -0.77,-131.73 395.52 80
5 01/26/2017 06:38:28 -0.01,-135.26 -0.23,-136.32 120.36 80
6 01/27/2017 06:15:07 -0.00,-135.28 0.86,-131.32 451.14 80
7 01/28/2017 18:36:38 0.01,-135.28 0.15,-135.88 68.31 80
8 01/31/2017 06:34:57 -0.02,-135.35 -0.06,-135.47 14.02 80
9 02/02/2017 18:30:28 0.02,-135.35 -0.02,-135.03 36.15 80




NCC Satellite Simultaneous Nadir Overpasses (SNOs) Prediction Service
